Regional Weather Roundup
Issued by NWS

Home | Current Version | Previous Version | Graphics & Text | Print | Product List | Glossary On
Versions: 1 2 3 4 5 6 7 8 9 10 11 12 13 14 15 16 17 18 19 20 21 22 23 24 25 26 27 28 29 30 31 32 33 34 35 36 37 38 39 40 41 42 43 44 45 46 47 48 49 50
555
ASUS43 KDMX 171901
RWRIA

WEATHER ROUNDUP FOR IOWA
NATIONAL WEATHER SERVICE DES MOINES IA
200 PM CDT THU AUG 17 2017

NOTE: "FAIR" INDICATES FEW OR NO CLOUDS BELOW 12,000 FEET WITH NO
SIGNIFICANT WEATHER AND/OR OBSTRUCTIONS TO VISIBILITY.

* - THESE STATIONS ARE NOT NWS STATIONS...THUS NOT UNDER NWS
QUALITY CONTROL.  THEY ALSO DO NOT REPORT WEATHER SUCH
AS PRECIPITATION OR FOG.

IAZ001>003-012>014-020>022-031>034-043>046-172000-
   NORTHWEST IOWA

CITY           SKY/WX    TMP DP  RH WIND       PRES   REMARKS
CARROLL *      SUNNY     77  63  61 NW15      29.87S
CHEROKEE *     PTSUNNY   77  63  60 NW12G20   29.87F
DENISON *      SUNNY     77  61  57 W16       29.91R
LE MARS *      SUNNY     77  59  53 NW17G24   29.89S
ORANGE CITY *  SUNNY     79  64  61 NW16      29.88F HX  81
SHELDON *      MOSUNNY   75  63  64 NW13G21   29.86S
SIOUX CITY     SUNNY     79  61  53 NW14G22   29.89F HX  80
SPENCER        PTSUNNY   76  62  62 NW21G28   29.86R
STORM LAKE *     N/A     73  63  68 NW17G23   29.88S
$$

IAZ055>058-069>071-079>083-090>094-172000-
   SOUTHWEST IOWA

CITY           SKY/WX    TMP DP  RH WIND       PRES   REMARKS
ATLANTIC *     SUNNY     79  63  57 NW15      29.90S HX  80
AUDUBON *      SUNNY     79  63  57 NW12G21   29.89F HX  80
CLARINDA *     SUNNY     79  61  53 NW13G21   29.95R HX  80
COUNCIL BLFS * SUNNY     79  61  53 NW13G21   29.93S HX  80
CRESTON *      SUNNY     79  59  50 NW17G24   29.91S HAZE    HX  80
HARLAN  *      SUNNY     77  61  57 NW20G26   29.93S
LAMONI         MOSUNNY   80  60  50 W15G25    29.90S HX  81
RED OAK *      SUNNY     79  61  53 W9G21     29.92S HX  80
SHENANDOAH *   SUNNY     79  61  53 NW10      29.94S HX  80
$$

IAZ047>049-059>061-072>074-084-172000-
   CENTRAL IOWA

CITY           SKY/WX    TMP DP  RH WIND       PRES   REMARKS
AMES           PTSUNNY   76  66  71 NW16G23   29.83F
ANKENY *       MOSUNNY   77  63  61 W17       29.85S
BOONE *        CLOUDY    75  64  69 W15G25    29.84S
CHARITON *     MOSUNNY   81  61  50 NW16      29.86F HX  81
DES MOINES     PTSUNNY   78  62  57 NW21      29.84S HX  80
GRINNELL*      CLOUDY    73  64  72 W15       29.85R
KNOXVILLE *    MOSUNNY   79  61  53 W15       29.84S HX  80
MARSHALLTOWN   PTSUNNY   76  65  68 W17G25    29.81S
NEWTON *       CLOUDY    73  64  73 W13       29.84F
PELLA *        PTSUNNY   77  62  60 W12G17    29.86S
PERRY *        CLOUDY    77  66  70 W8G16     29.86S
$$

IAZ004>006-015-016-023>025-035-036-172000-
   NORTH CENTRAL IOWA

CITY           SKY/WX    TMP DP  RH WIND       PRES   REMARKS
ALGONA *       CLOUDY    72  64  78 NW15G21   29.84S
CLARION *      PTSUNNY   73  66  78 NW18G26   29.82F
ESTHERVILLE    PTSUNNY   69  63  81 NW12G22   29.83S
FORT DODGE *   PTSUNNY   72  63  73 NW16G23   29.85F
MASON CITY     PTSUNNY   73  62  68 NW20G32   29.80R
FOREST CITY *  CLOUDY    72  63  73 NW20      29.81R
WEBSTER CITY * CLOUDY    73  64  73 W15G22    29.82S
IOWA FALLS *   CLOUDY    74  64  71 W16G25    29.83R
$$

IAZ007>011-017>019-026>030-037>042-050>054-066-172000-
   NORTHEAST IOWA

CITY           SKY/WX    TMP DP  RH WIND       PRES   REMARKS
CEDAR RAPIDS   PTSUNNY   75  65  70 W17G26    29.78S
CHARLES CITY * CLOUDY    72  64  78 W17G29    29.77R
CLINTON *      PTSUNNY   78  68  71 W21G29    29.77S HX  80
DECORAH *      LGT RAIN  68  66  94 W9G18     29.71R
DUBUQUE        CLOUDY    74  64  71 W23G31    29.74S
MONTICELLO *   PTSUNNY   77  64  65 W17G25    29.75S
OELWEIN *      CLOUDY    73  64  73 W21G28    29.76S
WATERLOO       CLOUDY    76  62  62 W16G28    29.76S
$$

IAZ064-065-067-068-078-172000-
   EAST CENTRAL IOWA

CITY           SKY/WX    TMP DP  RH WIND       PRES   REMARKS
DAVENPORT      MOSUNNY   80  66  62 W18G29    29.80S HX  82
IOWA CITY      CLOUDY    80  65  59 W20G29    29.81R HX  82
MUSCATINE *    MOSUNNY   82  64  54 W17       29.80S HX  84
QUAD CITIES    CLOUDY    83  65  54 W20G26    29.78F HX  85
$$

IAZ062-063-075>077-085>089-095>099-172000-
   SOUTHEAST IOWA

CITY           SKY/WX    TMP DP  RH WIND       PRES   REMARKS
BURLINGTON     CLOUDY    81  68  64 SW15      29.81S HX  84
FAIRFIELD *    CLOUDY    77  64  65 W16G23    29.83S
FORT MADISON * CLOUDY    82  68  61 W10G18    29.82F HX  85
KEOKUK *       CLOUDY    84  64  51 W21G28    29.82F HX  86
OSKALOOSA *    CLOUDY    76  64  68 W12       29.85S
OTTUMWA        PTSUNNY   80  63  55 W14G24    29.84R HX  81
WASHINGTON *   PTSUNNY   77  66  69 W14G23    29.83S
$$

ABBREVIATIONS USED IN REMARKS
   TC - TEMPERATURES IN CELSIUS
  WCI - WIND CHILL INDEX
   HX - HEAT INDEX
  VSB - VISIBILITY
$$





USA.gov is the U.S. government's official web portal to all federal, state and local government web resources and services.